Date,TemperatureHighF,TemperatureAvgF,TemperatureLowF,DewpointHighF,DewpointAvgF,DewpointLowF,HumidityHigh,HumidityAvg,HumidityLow,PressureMaxIn,PressureMinIn,WindSpeedMaxMPH,WindSpeedAvgMPH,GustSpeedMaxMPH,PrecipitationSumIn
2013-1-1,15.3,2.2,-14.1,10.8,-3.5,-19.1,86,77,57,30.34,30.14,12,1,12,0.00
2013-1-2,20.5,17.3,14.6,14.3,12.8,10.4,89,82,74,30.14,30.03,8,2,8,0.00
2013-1-3,22.1,17.8,11.6,17.3,13.1,6.8,90,82,72,30.22,30.05,12,2,12,0.00
2013-1-4,33.1,16.3,3.6,22.0,10.9,-0.2,91,80,61,30.21,30.02,10,1,10,0.00
2013-1-5,29.0,14.8,0.9,20.8,9.9,-3.0,92,81,66,30.21,29.92,9,1,9,0.00
2013-1-6,27.7,22.2,14.5,22.7,16.6,9.5,88,79,60,30.23,29.99,9,2,9,0.00
2013-1-7,34.7,22.9,15.3,26.0,17.7,8.8,88,80,69,30.14,29.90,16,2,16,0.00
2013-1-8,39.1,24.9,6.9,30.1,20.4,3.3,92,83,65,30.09,29.80,13,2,13,0.00
2013-1-9,34.7,29.5,16.8,28.9,22.9,13.3,86,77,63,30.40,29.85,18,4,18,0.00
2013-1-10,42.1,30.3,16.7,33.9,20.1,13.2,95,70,35,30.44,29.81,13,2,13,0.24
2013-1-11,41.1,37.1,35.0,40.6,36.2,33.7,98,97,95,29.83,29.40,12,3,12,0.06
2013-1-12,42.6,24.6,12.6,42.0,20.3,6.2,98,83,74,30.06,29.39,20,5,20,0.01
2013-1-13,12.8,9.7,4.5,8.5,4.5,0.2,84,79,72,30.26,30.02,8,2,8,0.00
2013-1-14,12.6,4.3,-2.1,5.8,-0.3,-6.2,86,81,70,30.46,30.26,12,1,12,0.00
2013-1-15,26.2,16.9,5.5,18.1,10.6,2.0,87,77,57,30.42,29.88,13,3,13,0.00
2013-1-16,26.9,20.8,11.5,24.6,14.4,1.3,91,77,61,30.21,29.65,13,3,13,0.09
2013-1-17,11.8,5.1,-6.8,3.3,-2.1,-11.4,82,72,63,30.45,30.21,7,1,7,0.00
2013-1-18,31.5,18.2,-5.9,26.3,14.3,-10.4,91,85,77,30.43,29.80,12,2,12,0.09
2013-1-19,35.4,22.5,2.4,30.6,17.5,-4.1,90,81,61,30.10,29.60,22,5,22,0.00
2013-1-20,4.9,-0.9,-7.5,-4.1,-7.1,-11.8,85,75,60,30.38,30.10,13,3,13,0.00
2013-1-21,-2.4,-10.1,-16.5,-7.3,-17.1,-21.8,80,71,58,30.38,30.27,17,2,17,0.00
2013-1-22,0.1,-10.4,-19.5,-11.0,-17.2,-24.6,80,72,57,30.49,30.37,8,1,8,0.00
2013-1-23,11.1,-3.5,-17.1,5.1,-9.2,-22.1,84,76,63,30.68,30.21,14,2,14,0.00
2013-1-24,9.1,-1.2,-15.3,3.9,-7.8,-20.2,83,73,56,30.78,30.33,8,1,8,0.01
2013-1-25,16.7,11.5,1.1,12.0,6.9,-3.1,86,82,74,30.33,30.00,12,2,12,0.08
2013-1-26,20.2,9.1,-10.2,13.1,2.8,-14.7,87,76,64,30.47,30.29,10,2,10,0.00
2013-1-27,33.3,26.9,20.3,27.4,20.6,12.7,93,78,57,30.30,29.89,12,2,12,0.36
2013-1-28,30.1,27.0,22.5,27.6,24.7,19.6,94,91,89,29.95,29.85,0,0,0,0.02
2013-1-29,33.1,30.5,28.0,30.8,27.9,24.7,92,90,88,29.73,29.63,9,2,9,0.08
2013-1-30,28.0,19.0,9.4,25.1,15.1,5.0,89,84,80,29.71,29.57,12,3,12,0.00
2013-1-31,9.4,5.6,-3.0,5.2,0.3,-8.4,84,78,70,30.22,29.68,13,3,13,0.00
2013-2-1,1.9,-5.1,-16.3,-5.7,-13.0,-21.4,79,69,53,30.35,30.22,8,2,8,0.00
2013-2-2,13.5,4.0,-10.6,1.2,-3.7,-15.5,84,71,53,30.27,30.05,8,1,8,0.00
2013-2-3,13.3,6.7,-1.2,2.6,-0.2,-6.3,83,73,55,30.10,30.00,12,2,12,0.00
2013-2-4,14.6,1.9,-18.1,1.6,-6.5,-22.9,88,68,43,30.15,29.92,6,0,6,0.00
2013-2-5,21.9,12.1,-6.6,16.9,8.1,-10.9,89,84,68,30.15,29.74,10,1,10,0.14
2013-2-6,23.0,10.1,-9.7,20.9,6.5,-14.2,92,85,74,30.25,30.12,6,1,6,0.07
2013-2-7,24.5,23.0,17.5,21.8,20.4,14.1,92,90,84,30.34,30.15,7,1,7,0.00
2013-2-8,27.6,15.7,3.4,17.7,10.5,0.0,89,80,58,30.46,30.33,6,0,6,0.00
2013-2-9,24.9,19.9,3.2,22.5,17.0,-0.5,93,89,82,30.38,30.07,15,3,15,0.00
2013-2-10,35.7,29.0,23.9,33.6,27.4,21.9,96,93,92,30.07,29.30,17,2,17,0.33
2013-2-11,35.9,27.7,22.0,33.7,25.2,18.4,94,90,86,29.99,29.29,9,1,9,0.06
2013-2-12,28.8,20.6,11.2,24.5,17.1,8.2,89,86,81,30.03,29.81,10,1,10,0.00
2013-2-13,38.1,26.0,13.5,32.0,22.9,10.9,94,88,73,29.82,29.67,6,1,6,0.00
2013-2-14,31.7,28.5,24.8,28.2,24.5,21.8,91,85,72,29.85,29.67,8,1,8,0.00
2013-2-15,18.3,11.9,-0.9,6.8,3.4,-5.2,83,69,50,30.30,30.22,12,2,12,0.00
2013-2-16,18.9,0.0,-15.7,3.6,-7.7,-20.6,89,71,44,30.29,30.24,7,1,7,0.00
2013-2-17,27.2,7.5,-18.5,14.6,-1.3,-23.5,88,68,52,30.28,29.88,14,3,14,0.00
2013-2-18,34.6,27.2,18.1,28.3,22.2,14.5,91,81,73,29.87,29.53,13,3,13,0.00
2013-2-19,18.0,7.1,0.7,14.5,0.1,-5.5,86,73,59,30.34,29.66,15,4,15,0.00
2013-2-20,23.7,12.0,-0.7,9.7,5.1,-4.8,84,74,54,30.53,30.34,8,2,8,0.00
2013-2-21,31.0,13.9,-10.2,18.2,7.4,-14.7,90,76,52,30.58,30.23,12,2,12,0.00
2013-2-22,28.2,23.7,15.7,25.1,20.8,12.4,91,88,85,30.23,29.86,7,1,7,0.17
2013-2-23,15.3,14.5,14.0,12.4,11.8,11.2,90,89,88,29.86,29.86,0,0,0,0.00
2013-2-24,34.9,30.4,23.7,28.1,25.4,20.8,89,82,72,30.13,30.06,5,0,4,0.00
2013-2-25,32.8,23.0,5.3,27.8,19.0,2.0,90,85,78,30.18,30.11,6,1,6,0.00
2013-2-26,41.2,27.6,12.2,28.9,21.7,9.2,92,79,56,30.16,29.93,13,3,13,0.00
2013-2-27,32.5,30.7,29.6,27.5,26.1,24.5,89,83,76,30.02,29.87,16,4,16,0.00
2013-2-28,29.9,25.8,21.7,26.0,20.7,15.9,87,81,73,30.29,30.01,14,4,14,0.00
2013-3-1,30.2,22.4,8.0,17.5,15.0,4.2,85,74,58,30.41,30.29,12,3,12,0.00
2013-3-2,32.4,11.7,-7.0,13.9,1.9,-11.3,88,68,32,30.42,30.27,9,1,9,0.00
2013-3-3,36.6,13.7,-9.2,14.2,1.6,-14.2,87,63,26,30.28,30.14,8,1,8,0.00
2013-3-4,32.9,22.4,6.0,19.4,9.6,1.7,84,60,38,30.18,30.10,9,2,9,0.00
2013-3-5,31.2,26.3,23.2,21.5,18.4,13.0,88,73,52,30.30,30.08,12,2,12,0.01
2013-3-6,33.8,23.5,8.1,19.1,15.8,3.6,87,73,48,30.41,30.27,12,2,12,0.00
2013-3-7,38.4,18.3,-2.9,20.7,9.7,-7.3,90,71,42,30.49,30.40,6,1,6,0.00
2013-3-8,42.7,30.9,19.7,28.8,22.7,14.4,84,72,55,30.45,30.21,12,3,12,0.00
2013-3-9,35.1,33.2,30.5,34.1,30.5,23.8,96,90,75,30.21,29.78,12,2,12,0.47
2013-3-10,34.4,32.8,28.6,33.6,30.1,26.1,97,90,83,29.99,29.80,12,3,12,0.04
2013-3-11,28.5,26.6,23.6,26.6,23.4,18.6,93,87,79,29.88,29.74,14,3,14,0.09
2013-3-12,31.1,23.6,19.8,19.4,17.6,15.2,87,78,54,30.14,29.79,12,3,12,0.00
2013-3-13,36.6,22.2,12.1,15.7,9.2,2.0,83,61,24,30.36,30.14,10,2,10,0.00
2013-3-14,38.4,22.0,4.7,28.2,16.0,0.2,89,78,66,30.32,30.07,12,1,12,0.00
2013-3-15,31.6,27.2,19.5,28.2,21.6,16.1,88,80,63,30.07,29.95,10,2,10,0.05
2013-3-16,27.7,18.8,8.8,16.3,11.4,3.7,88,73,52,30.26,29.98,13,2,13,0.07
2013-3-17,29.9,12.8,-13.2,12.7,0.1,-18.2,85,60,29,30.35,30.05,12,2,12,0.00
2013-3-18,30.9,23.6,17.6,27.5,19.4,12.8,89,84,70,30.05,29.56,13,4,13,0.15
2013-3-19,29.9,18.4,10.5,14.7,7.9,0.4,88,65,39,30.09,29.63,20,6,20,0.00
2013-3-20,20.9,11.2,1.0,7.3,2.0,-4.1,79,67,52,30.17,30.08,14,3,14,0.00
2013-3-21,32.9,16.1,-1.2,15.1,7.0,-5.6,85,69,43,30.18,30.08,9,1,9,0.00
2013-3-22,36.4,18.5,-3.4,21.8,10.5,-8.0,86,72,49,30.16,30.09,8,1,8,0.00
2013-3-23,37.2,24.0,8.2,24.1,16.9,4.6,89,75,56,30.24,30.15,9,1,9,0.00
2013-3-24,32.7,27.3,20.5,25.9,21.0,15.9,84,77,66,30.18,30.01,14,2,14,0.00
2013-3-25,36.4,25.2,10.8,24.8,18.8,7.1,89,77,55,30.24,30.06,12,1,12,0.00
2013-3-26,40.2,32.5,24.9,25.8,22.6,18.0,87,68,42,30.31,30.24,8,1,8,0.00
2013-3-27,46.2,34.5,25.3,27.2,22.1,17.2,87,64,32,30.35,30.30,8,1,8,0.00
2013-3-28,49.1,31.6,14.2,23.7,17.7,10.0,87,61,28,30.39,30.30,9,1,9,0.00
2013-3-29,51.4,34.7,17.3,28.4,21.6,13.0,86,63,32,30.36,30.16,10,2,10,0.00
2013-3-30,42.3,36.3,30.8,40.3,34.3,27.4,96,92,77,30.16,29.81,10,1,10,0.51
2013-3-31,38.6,32.3,24.7,32.0,24.0,9.1,97,74,40,30.02,29.73,18,4,18,0.03
2013-4-1,35.2,26.7,19.6,14.1,10.8,7.4,69,52,32,30.21,30.02,13,4,13,0.00
2013-4-2,38.5,27.4,18.6,16.8,11.7,4.9,72,54,25,30.38,30.21,10,2,10,0.00
2013-4-3,44.0,28.7,9.3,24.0,13.1,4.0,84,56,27,30.48,30.12,21,3,21,0.00
2013-4-4,49.4,39.5,27.8,33.2,25.3,18.4,80,58,35,30.17,30.00,14,3,14,0.00
2013-4-5,41.1,32.2,20.5,29.6,19.4,13.9,91,62,34,30.30,30.11,9,2,9,0.00
2013-4-6,44.9,35.5,31.8,35.1,31.1,28.1,95,85,60,30.10,29.58,12,3,12,0.26
2013-4-7,42.1,34.9,30.8,33.5,31.5,28.5,95,88,70,29.98,29.68,6,1,6,0.10
2013-4-8,41.3,37.0,31.7,39.1,35.7,30.2,97,95,91,30.08,29.80,4,0,4,0.85
2013-4-9,40.6,35.9,33.0,34.7,29.7,18.0,97,79,50,30.19,30.04,12,3,12,0.00
2013-4-10,41.4,35.5,30.4,26.9,22.3,15.7,72,59,42,30.25,30.04,14,3,14,0.00
2013-4-11,35.5,32.2,27.7,29.3,24.5,16.3,93,74,48,30.06,29.78,16,6,16,0.01
2013-4-12,36.6,29.8,26.7,30.0,26.6,23.9,94,88,75,29.83,29.71,8,2,8,0.16
2013-4-13,37.9,29.0,22.1,25.1,22.6,18.3,89,78,55,30.03,29.83,9,2,9,0.07
2013-4-14,38.0,28.2,14.1,32.6,23.9,10.7,95,85,58,30.05,29.67,13,1,13,0.60
2013-4-15,39.6,36.3,33.9,34.4,31.0,27.8,95,82,70,29.93,29.61,20,4,20,0.01
2013-4-16,47.1,37.7,28.4,32.4,29.2,24.8,87,72,44,30.39,29.93,12,3,12,0.00
2013-4-17,43.2,35.0,26.5,31.7,28.4,24.0,92,77,58,30.42,30.03,10,2,10,0.01
2013-4-18,34.7,33.1,30.8,32.8,31.6,29.3,96,94,91,30.02,29.36,16,3,16,0.35
2013-4-19,32.9,28.4,16.9,29.5,25.5,14.0,95,89,76,29.98,29.31,16,3,16,0.19
2013-4-20,40.6,24.3,6.2,22.0,13.8,2.9,92,68,33,30.41,29.98,12,2,12,0.00
2013-4-21,38.5,32.8,24.3,37.1,28.5,19.0,95,84,77,30.43,30.14,20,4,20,0.17
2013-4-22,48.1,38.7,31.5,38.1,32.0,22.4,95,79,45,30.24,30.09,10,2,10,0.02
2013-4-23,44.4,35.0,24.9,32.8,27.2,21.3,96,75,46,30.10,30.03,10,2,10,0.42
2013-4-24,48.9,34.5,19.5,34.0,24.9,15.3,92,71,42,30.05,29.91,18,3,18,0.00
2013-4-25,49.5,37.1,25.6,31.5,27.5,22.1,94,71,36,30.22,29.96,14,2,14,0.00
2013-4-26,66.8,47.1,32.0,44.1,36.6,27.6,95,70,40,30.19,30.06,13,2,13,0.12
2013-4-27,72.6,50.0,30.1,46.8,37.2,28.3,96,68,28,30.16,29.94,10,2,10,0.00
2013-4-28,73.5,55.1,36.4,52.8,42.9,34.1,97,68,35,29.94,29.69,16,3,16,0.36
2013-4-29,75.3,57.9,43.1,53.2,47.9,42.2,98,74,35,29.79,29.62,8,2,8,0.07
2013-4-30,80.6,61.6,45.4,59.5,47.8,34.8,98,65,32,29.90,29.44,22,4,22,0.00
2013-5-1,51.8,40.5,33.0,40.8,35.6,31.3,96,84,52,30.49,29.90,9,1,9,0.18
2013-5-2,33.3,31.6,30.3,32.0,29.9,28.0,96,93,90,30.55,30.45,8,1,8,0.75
2013-5-3,32.4,31.5,29.7,30.8,29.5,27.7,94,92,90,30.45,30.23,9,3,9,0.11
2013-5-4,44.0,36.2,32.2,39.6,34.1,30.7,96,92,84,30.24,30.19,7,2,7,0.18
2013-5-5,60.5,43.4,33.7,43.5,36.9,32.7,96,80,52,30.23,30.12,7,1,7,0.00
2013-5-6,73.5,50.5,31.0,47.5,38.6,29.7,97,69,33,30.16,30.03,6,1,6,0.00
2013-5-7,79.8,56.9,34.3,48.2,40.4,32.9,97,62,22,30.10,29.97,10,1,10,0.00
2013-5-8,76.5,57.8,37.6,51.9,45.6,35.8,97,68,35,30.02,29.97,10,1,10,0.00
2013-5-9,59.2,45.1,38.3,49.0,40.9,31.9,95,85,69,30.16,29.97,13,2,13,0.14
2013-5-10,63.4,46.5,32.1,36.6,29.5,21.7,86,56,21,30.16,29.89,10,2,10,0.00
2013-5-11,47.0,41.4,37.2,39.5,30.7,23.3,85,66,47,30.12,29.85,16,4,16,0.03
2013-5-12,53.9,41.6,30.3,26.0,21.2,11.9,74,47,20,30.18,30.10,16,4,16,0.00
2013-5-13,59.5,45.4,24.2,36.4,26.9,20.3,88,53,26,30.18,29.75,14,3,14,0.00
2013-5-14,86.2,64.3,37.0,51.3,42.4,32.8,89,50,23,29.80,29.41,15,3,15,0.00
2013-5-15,80.5,65.5,51.8,47.4,42.2,33.5,75,46,20,29.83,29.55,14,4,14,0.00
2013-5-16,76.8,61.8,45.0,48.3,37.1,25.5,88,46,18,30.00,29.82,9,2,9,0.00
2013-5-17,70.8,60.1,52.2,52.2,44.4,33.3,77,57,41,30.07,29.99,12,3,12,0.00
2013-5-18,73.8,60.3,52.1,63.4,56.0,48.3,96,87,66,30.04,29.85,10,2,10,0.30
2013-5-19,84.7,66.9,54.4,67.9,60.9,53.4,99,84,48,29.88,29.65,13,2,13,1.32
2013-5-20,76.4,64.8,51.7,64.1,59.7,49.9,98,85,58,29.68,29.51,14,3,14,1.08
2013-5-21,61.7,51.0,43.8,54.3,47.6,41.6,97,89,70,29.75,29.57,7,2,7,0.65
2013-5-22,53.7,47.3,42.7,48.3,44.3,40.8,94,89,80,30.04,29.73,14,3,14,0.01
2013-5-23,55.7,45.9,33.6,42.6,33.6,27.0,90,65,38,30.38,30.04,12,4,12,0.00
2013-5-24,68.5,49.3,28.9,42.4,34.5,27.1,97,63,30,30.47,30.28,9,2,9,0.00
2013-5-25,67.8,55.0,42.4,47.8,43.1,38.9,92,67,40,30.35,30.27,12,2,12,0.00
2013-5-26,69.9,53.1,36.2,44.2,37.7,30.8,96,64,25,30.32,30.15,13,2,13,0.00
2013-5-27,69.0,59.5,45.7,48.5,44.7,39.6,87,59,45,30.17,29.91,13,3,13,0.00
2013-5-28,64.1,57.4,53.2,56.0,50.7,45.2,94,79,68,29.91,29.72,8,2,8,0.00
2013-5-29,80.6,64.5,55.7,66.5,59.1,54.4,97,84,52,29.85,29.68,12,2,12,0.07
2013-5-30,78.3,68.6,61.1,69.2,63.7,59.8,97,85,65,29.75,29.55,18,3,18,0.07
2013-5-31,80.6,66.3,55.1,61.9,58.7,51.8,96,78,45,29.63,29.51,21,5,21,0.34
2013-6-1,72.6,55.5,42.7,63.2,52.8,41.1,98,91,53,29.89,29.56,9,2,9,0.08
2013-6-2,65.3,49.9,42.0,46.6,41.5,37.6,96,76,37,30.07,29.89,12,2,12,0.02
2013-6-3,70.0,52.7,33.9,46.3,38.8,32.2,97,64,32,30.12,30.02,8,1,8,0.00
2013-6-4,63.6,53.8,45.6,52.6,47.3,39.4,96,80,59,30.17,30.09,10,1,10,0.17
2013-6-5,53.7,51.8,50.7,52.5,50.9,49.8,98,97,91,30.16,30.00,7,1,7,1.25
2013-6-6,53.9,51.4,49.4,52.6,50.4,48.8,98,96,93,30.05,30.00,5,1,5,0.02
2013-6-7,68.5,56.0,44.0,54.7,48.0,40.4,98,78,44,30.06,29.94,5,0,5,0.00
2013-6-8,73.6,58.8,47.3,59.2,51.5,45.9,98,80,44,29.99,29.93,10,2,10,0.43
2013-6-9,63.4,55.7,48.1,61.2,54.3,46.6,97,95,89,30.00,29.84,7,1,7,0.21
2013-6-10,78.7,65.1,54.2,65.6,59.9,53.4,99,85,55,29.86,29.78,7,1,7,0.00
2013-6-11,79.7,65.5,52.2,66.7,59.5,51.0,98,82,54,29.88,29.80,8,1,8,0.00
2013-6-12,77.5,64.1,51.0,66.4,56.5,49.6,98,78,46,29.90,29.75,12,1,12,0.00
2013-6-13,75.5,61.8,50.8,55.0,51.4,47.3,92,71,40,30.11,29.87,9,1,9,0.00
2013-6-14,78.3,61.2,43.7,60.3,50.5,42.1,98,72,37,30.15,29.93,12,1,12,0.00
2013-6-15,70.5,64.0,56.8,65.8,61.0,55.6,97,90,83,29.95,29.80,10,0,10,0.28
2013-6-16,81.2,64.8,49.0,64.0,55.1,48.2,99,75,35,29.91,29.78,13,2,13,0.16
2013-6-17,73.7,59.1,48.3,63.5,53.5,44.6,98,83,62,30.06,29.84,8,1,8,1.00
2013-6-18,75.3,58.0,40.4,51.2,44.5,38.8,97,66,30,30.15,30.05,6,1,6,0.00
2013-6-19,78.8,61.1,44.1,63.6,52.4,42.1,97,76,49,30.12,29.99,8,1,8,0.00
2013-6-20,79.1,65.4,53.9,67.3,60.6,52.2,98,86,62,30.07,29.96,13,2,13,1.68
2013-6-21,68.3,64.7,60.9,66.1,63.4,59.9,99,96,89,30.11,29.72,5,1,5,0.79
2013-6-22,72.8,65.2,59.4,69.4,63.7,58.5,99,95,83,30.05,29.86,7,1,7,0.11
2013-6-23,83.7,72.0,62.9,72.2,66.2,60.8,98,83,55,29.89,29.69,16,3,16,0.00
2013-6-24,84.8,70.4,55.6,71.8,63.9,54.5,99,82,53,29.90,29.78,8,2,8,0.00
2013-6-25,84.5,71.6,58.6,71.7,65.5,57.3,98,83,58,29.83,29.72,8,1,8,0.00
2013-6-26,84.1,70.7,61.5,75.3,68.1,60.3,99,92,69,29.75,29.64,8,1,8,0.01
2013-6-27,84.5,70.9,59.3,70.7,62.6,57.4,99,78,47,29.77,29.67,13,2,13,0.04
2013-6-28,71.8,64.2,59.2,66.8,61.1,56.9,97,90,78,29.76,29.64,8,2,8,0.03
2013-6-29,72.5,62.6,49.9,60.4,55.1,47.5,94,78,49,29.97,29.74,10,2,10,0.00
2013-6-30,81.0,63.3,45.0,58.1,50.7,43.7,98,69,33,30.11,29.97,8,1,8,0.00
2013-7-1,81.6,64.4,50.6,61.0,53.0,47.3,98,70,39,30.18,30.11,7,1,7,0.00
2013-7-2,82.1,62.0,44.3,56.2,47.2,36.7,97,65,24,30.18,30.07,7,0,7,0.00
2013-7-3,82.7,60.3,42.8,60.5,49.9,41.2,98,74,34,30.09,29.97,7,1,7,0.00
2013-7-4,85.0,69.3,54.7,67.1,59.8,52.9,97,75,48,29.99,29.88,12,2,12,0.00
2013-7-5,86.1,73.4,60.0,66.0,61.1,58.4,95,68,41,29.93,29.82,13,3,13,0.00
2013-7-6,88.3,74.4,63.6,73.1,66.1,60.3,95,77,48,29.88,29.83,12,2,12,0.01
2013-7-7,84.5,75.4,66.1,76.0,70.4,63.8,97,85,66,29.88,29.81,9,1,9,0.01
2013-7-8,85.0,68.4,59.9,72.0,64.5,58.8,97,88,62,29.97,29.85,5,0,5,0.00
2013-7-9,75.2,67.7,57.5,72.2,66.0,56.1,98,94,88,29.97,29.73,10,1,10,0.00
2013-7-10,77.3,66.8,58.7,64.0,57.6,53.7,93,74,46,30.01,29.82,13,3,13,0.01
2013-7-11,82.9,63.8,50.1,63.3,56.0,48.7,98,80,43,30.11,30.00,8,1,8,0.00
2013-7-12,84.3,69.8,54.8,66.2,59.6,53.2,98,73,46,30.06,29.94,17,4,17,0.00
2013-7-13,81.8,72.4,66.8,69.4,63.3,59.3,89,73,60,30.08,29.93,12,3,12,0.00
2013-7-14,85.6,73.0,65.0,71.3,65.4,61.7,94,79,47,30.18,30.09,15,1,15,0.00
2013-7-15,88.0,72.6,57.2,70.9,64.3,55.8,98,78,47,30.24,30.16,10,2,10,0.00
2013-7-16,91.8,77.2,64.9,75.7,69.6,63.4,98,80,51,30.19,30.12,13,2,13,0.00
2013-7-17,91.6,77.2,64.5,74.1,68.9,63.2,99,78,48,30.20,30.08,12,2,12,0.00
2013-7-18,92.2,79.2,65.9,74.8,69.5,64.4,98,75,51,30.08,29.67,20,3,20,0.00
2013-7-19,84.0,74.9,60.7,72.6,65.9,57.7,98,75,46,29.80,29.61,15,2,15,0.04
2013-7-20,75.2,64.5,55.9,59.8,54.7,47.6,95,72,45,30.00,29.79,9,1,9,0.00
2013-7-21,75.7,64.0,53.5,63.9,56.9,47.8,93,78,61,30.00,29.84,8,1,8,0.00
2013-7-22,85.0,69.5,59.6,73.7,62.8,55.3,96,81,55,29.86,29.60,12,2,12,0.00
2013-7-23,72.3,62.2,50.7,55.4,51.7,47.2,91,70,44,30.01,29.76,8,1,8,0.00
2013-7-24,71.7,57.8,42.9,59.1,50.6,41.3,98,79,51,30.08,29.98,8,1,8,0.00
2013-7-25,81.4,63.1,49.8,68.8,58.5,48.1,97,87,50,29.99,29.86,8,1,8,0.09
2013-7-26,71.6,58.2,47.9,61.3,54.1,44.8,98,87,59,30.03,29.85,10,2,10,0.03
2013-7-27,54.7,50.7,46.8,51.2,47.3,43.7,96,88,77,30.01,29.87,8,2,8,0.01
2013-7-28,62.6,55.2,48.1,57.1,52.3,47.0,96,90,76,30.05,29.90,12,2,12,0.01
2013-7-29,77.1,58.6,42.1,63.0,52.9,41.0,99,84,51,30.14,30.05,8,0,8,0.00
2013-7-30,68.2,62.2,55.8,63.0,59.5,54.4,98,91,75,30.14,30.04,9,1,9,0.00
2013-7-31,76.6,64.9,53.0,65.1,58.4,50.6,98,82,44,30.04,29.92,13,2,13,0.01
2013-8-1,76.2,62.5,49.3,62.6,54.7,47.9,98,78,45,29.98,29.85,10,1,10,0.00
2013-8-2,76.7,61.6,48.8,59.4,54.0,47.7,98,79,40,30.02,29.82,9,1,9,0.00
2013-8-3,75.5,59.6,43.8,56.3,50.6,42.5,98,75,43,30.20,30.02,10,1,10,0.00
2013-8-4,71.5,57.5,42.6,58.6,50.5,41.3,98,80,50,30.25,30.06,6,0,6,0.00
2013-8-5,70.6,59.5,49.3,66.7,58.0,47.5,98,95,84,30.06,29.79,6,1,6,0.00
2013-8-6,77.3,66.5,61.1,65.1,62.4,58.8,98,88,54,29.81,29.60,7,1,7,0.01
2013-8-7,75.2,63.0,50.0,60.4,55.5,48.1,98,80,42,30.01,29.70,8,1,8,0.00
2013-8-8,74.5,58.1,42.7,62.7,53.1,41.4,98,85,51,30.05,29.97,9,1,9,0.00
2013-8-9,73.7,61.6,50.9,56.6,53.5,49.5,98,77,46,30.09,29.96,12,1,12,0.00
2013-8-10,75.2,62.3,51.2,59.1,54.9,49.1,95,79,46,30.16,30.08,6,1,6,0.00
2013-8-11,80.0,60.5,43.7,60.4,53.0,42.3,98,79,43,30.12,30.00,5,1,5,0.00
2013-8-12,77.5,62.5,47.0,61.1,55.2,44.8,98,79,48,30.08,29.94,12,1,12,0.00
2013-8-13,69.1,54.5,39.9,54.9,47.4,38.6,98,79,50,30.21,30.08,6,1,6,0.00
2013-8-14,73.5,54.6,36.6,54.7,46.5,35.2,98,77,43,30.24,30.11,7,0,7,0.00
2013-8-15,80.8,61.2,45.9,61.7,52.5,44.4,98,77,39,30.14,30.07,7,0,7,0.00
2013-8-16,81.8,61.9,45.5,63.5,55.2,44.2,98,81,45,30.17,30.12,6,0,6,0.00
2013-8-17,81.8,62.9,46.1,61.1,54.1,44.7,98,77,41,30.22,30.10,12,2,12,0.00
2013-8-18,81.7,63.2,45.9,63.3,54.2,44.4,98,76,41,30.17,30.01,15,2,15,0.00
2013-8-19,83.9,68.0,54.6,69.9,61.8,52.6,96,82,56,30.03,29.90,14,2,14,0.00
2013-8-20,88.1,73.9,62.9,73.2,67.4,62.0,98,82,57,29.93,29.83,12,2,12,0.00
2013-8-21,80.8,71.7,60.6,76.9,68.9,59.4,98,91,76,29.99,29.81,10,1,10,0.00
2013-8-22,81.3,65.9,50.5,61.8,55.9,48.5,98,75,34,30.15,29.99,7,1,7,0.00
2013-8-23,84.6,61.6,41.1,63.6,52.6,39.8,98,77,33,30.20,30.07,7,1,7,0.00
2013-8-24,83.0,70.2,54.9,70.6,62.9,53.6,98,79,61,30.15,29.94,15,4,15,0.00
2013-8-25,93.8,81.1,71.2,76.5,72.4,69.2,94,77,51,29.99,29.88,12,4,12,0.00
2013-8-26,85.7,76.7,69.7,80.6,73.6,68.3,99,90,75,29.97,29.83,10,1,10,0.00
2013-8-27,83.8,73.1,66.9,77.6,71.5,66.0,99,95,75,29.90,29.77,4,0,4,1.50
2013-8-28,84.3,70.4,59.3,72.3,66.3,58.4,99,88,48,30.02,29.90,4,0,4,0.00
2013-8-29,85.7,71.7,63.2,76.3,68.7,62.3,99,91,70,30.03,29.77,15,1,15,1.25
2013-8-30,79.8,70.0,58.1,69.6,66.1,56.7,99,88,61,29.91,29.79,7,1,7,0.00
2013-8-31,83.8,66.5,51.8,69.8,61.6,51.0,99,86,56,29.90,29.70,10,1,10,0.01
2013-9-1,76.1,66.2,59.2,65.0,60.8,54.7,98,84,63,29.92,29.68,12,2,12,0.00
2013-9-2,64.3,55.9,44.5,55.4,51.0,42.8,95,84,64,30.06,29.92,6,1,6,0.00
2013-9-3,76.7,55.9,37.5,61.4,49.7,36.5,99,82,49,30.10,29.97,8,1,8,0.00
2013-9-4,76.6,60.9,48.2,62.4,55.0,46.6,99,83,49,30.19,30.00,8,1,8,0.00
2013-9-5,77.0,57.2,40.1,59.2,49.6,38.9,99,79,42,30.29,30.17,9,1,9,0.00
2013-9-6,84.5,66.3,49.6,72.5,61.8,48.2,98,87,61,30.17,29.88,13,1,13,0.00
2013-9-7,86.8,69.8,59.2,74.0,65.1,57.4,99,86,57,30.07,29.85,8,1,8,0.00
2013-9-8,69.0,59.2,46.5,61.4,54.5,45.4,98,86,58,30.13,29.93,7,1,7,0.04
2013-9-9,83.1,67.9,59.6,74.7,65.8,58.0,99,94,73,29.94,29.62,10,1,10,0.04
2013-9-10,77.3,69.3,61.9,69.5,66.4,60.6,99,91,73,29.91,29.69,8,1,8,0.02
2013-9-11,79.5,65.4,55.9,66.2,59.3,52.7,99,83,44,30.01,29.91,12,1,12,0.02
2013-9-12,65.8,56.7,42.7,56.6,51.0,40.8,98,83,55,30.23,29.98,8,1,8,0.01
2013-9-13,66.9,49.0,35.6,51.6,43.3,34.3,98,83,51,30.30,30.13,5,0,5,0.00
2013-9-14,71.2,52.8,35.7,56.8,47.4,34.4,98,84,51,30.14,29.95,12,1,12,0.23
2013-9-15,57.8,52.5,36.7,56.2,50.5,35.3,98,93,82,30.34,29.95,8,0,8,0.18
2013-9-16,66.0,45.6,32.1,48.7,39.6,31.3,98,83,43,30.48,30.33,5,0,5,0.00
2013-9-17,68.5,51.4,34.3,53.9,43.9,33.3,98,79,44,30.34,30.03,15,2,15,0.03
2013-9-18,65.0,61.0,56.6,64.4,60.1,53.6,98,97,87,30.03,29.77,8,1,8,0.05
2013-9-19,74.2,66.2,61.2,71.3,65.3,60.9,100,97,90,29.79,29.64,9,1,9,0.19
2013-9-20,65.3,58.5,47.9,64.7,55.4,45.9,98,90,72,29.85,29.67,12,2,12,0.07
2013-9-21,60.8,49.9,37.1,47.6,43.6,35.8,95,80,56,30.00,29.85,10,2,10,0.00
2013-9-22,65.4,47.1,31.2,50.3,40.6,30.2,98,80,51,30.11,29.98,10,1,10,0.00
2013-9-23,69.2,54.8,43.5,54.0,48.1,42.2,97,80,53,30.07,29.98,14,2,14,0.00
2013-9-24,73.5,54.1,38.6,55.3,47.3,37.3,98,81,44,30.05,29.95,8,1,8,0.00
2013-9-25,73.2,53.2,38.1,57.8,47.1,37.0,99,82,46,30.03,29.94,5,1,5,0.00
2013-9-26,73.7,55.1,38.2,56.2,48.5,37.2,98,81,50,30.06,29.96,12,2,12,0.00
2013-9-27,78.0,65.9,52.6,62.3,55.7,50.2,93,71,56,30.03,29.87,18,4,18,0.00
2013-9-28,72.1,60.5,47.1,62.5,54.2,45.3,96,81,57,29.92,29.61,19,4,19,0.18
2013-9-29,71.0,53.1,36.4,54.6,45.7,35.6,99,80,41,29.99,29.85,9,1,9,0.00
2013-9-30,73.0,59.9,49.6,54.2,50.1,46.6,90,72,49,29.89,29.65,18,3,18,0.00
2013-10-1,74.2,61.6,44.0,56.4,47.8,36.2,88,64,27,29.94,29.60,14,2,14,0.00
2013-10-2,73.9,53.8,33.9,53.0,41.0,32.4,98,70,27,30.08,29.93,7,1,7,0.36
2013-10-3,57.9,54.3,52.2,54.8,53.1,50.6,98,96,88,30.00,29.88,7,0,7,0.39
2013-10-4,58.2,54.3,51.6,54.4,52.8,50.9,98,95,83,30.06,29.96,10,1,10,0.07
2013-10-5,57.2,55.1,52.8,56.5,54.4,51.9,98,98,94,30.00,29.69,10,1,10,0.83
2013-10-6,61.4,52.2,45.8,53.6,50.3,44.1,99,94,71,29.77,29.65,7,1,7,0.08
2013-10-7,61.6,46.5,35.5,49.1,42.8,34.7,99,89,53,30.03,29.73,12,1,12,0.01
2013-10-8,72.8,54.1,32.7,49.2,41.8,31.7,98,68,35,30.06,29.91,16,4,16,0.00
2013-10-9,73.2,60.1,50.0,53.9,49.2,45.6,89,69,45,30.08,29.97,16,2,16,0.00
2013-10-10,72.0,53.7,37.1,50.4,44.8,35.8,98,75,41,30.11,29.98,12,1,12,0.00
2013-10-11,73.3,58.3,39.8,57.5,49.7,38.3,98,75,52,30.01,29.74,20,3,20,0.00
2013-10-12,65.2,55.6,47.3,55.6,46.9,40.8,87,73,58,30.09,29.71,16,4,16,0.00
2013-10-13,57.5,46.7,31.9,44.7,37.9,29.4,91,74,40,30.43,30.08,12,2,12,0.00
2013-10-14,57.2,43.3,29.1,42.2,35.4,27.4,96,76,46,30.47,30.14,10,1,10,0.00
2013-10-15,52.9,49.5,45.5,52.4,47.8,41.1,98,94,70,30.15,29.68,8,1,8,0.03
2013-10-16,47.1,41.4,30.9,46.3,39.6,29.8,97,93,80,29.92,29.74,9,2,9,0.00
2013-10-17,49.9,39.5,29.6,44.8,37.7,28.6,98,94,79,29.91,29.80,4,0,4,0.00
2013-10-18,48.2,41.7,34.8,43.2,38.6,32.2,97,89,57,29.93,29.80,10,1,10,0.00
2013-10-19,43.3,37.6,30.0,39.9,35.7,28.7,96,93,82,29.85,29.68,8,1,8,0.01
2013-10-20,40.6,33.3,27.2,37.3,31.4,25.3,96,93,87,29.81,29.71,7,0,7,0.00
2013-10-21,35.4,33.4,31.4,34.1,29.6,24.8,96,86,68,29.89,29.78,15,4,15,0.00
2013-10-22,37.7,35.3,30.8,33.0,30.4,26.8,92,82,72,30.03,29.89,10,2,10,0.00
2013-10-23,37.9,33.5,28.8,31.2,26.8,23.6,89,77,60,30.06,29.98,10,2,10,0.00
2013-10-24,40.0,35.8,32.3,31.8,29.2,26.0,86,77,65,30.29,30.06,14,2,14,0.00
2013-10-25,51.6,38.7,26.0,41.4,31.0,23.3,93,75,56,30.31,29.71,18,3,18,0.00
2013-10-26,48.2,41.5,37.2,39.7,34.5,30.8,86,76,65,30.05,29.71,14,3,14,0.00
2013-10-27,50.7,38.5,28.8,35.8,31.4,26.8,93,77,52,30.21,29.83,12,2,12,0.00
2013-10-28,39.9,32.9,25.0,32.1,24.2,19.0,88,71,46,30.51,30.21,13,2,13,0.00
2013-10-29,37.1,32.0,23.0,34.7,28.1,20.0,92,86,74,30.51,30.19,7,0,7,0.01
2013-10-30,49.4,43.5,36.8,48.9,42.0,34.6,98,95,90,30.19,29.70,6,1,6,0.01
2013-10-31,52.1,48.4,44.5,51.8,47.9,44.0,99,98,98,29.70,29.28,6,1,6,0.02
2013-11-1,44.5,40.6,36.6,44.0,39.4,34.6,98,95,92,29.80,29.30,9,2,9,0.00
2013-11-2,42.9,35.5,26.1,35.6,31.9,23.8,96,87,60,30.17,29.80,8,1,8,0.00
2013-11-3,46.4,36.0,22.5,35.9,29.8,20.0,96,79,61,30.25,30.06,21,4,21,0.00
2013-11-4,44.0,41.6,31.6,42.8,38.0,30.3,97,87,72,30.15,29.90,17,4,17,0.01
2013-11-5,44.1,34.9,27.0,39.6,32.6,25.5,96,92,76,30.28,30.02,5,0,5,0.01
2013-11-6,35.2,31.6,23.4,32.6,29.1,20.9,97,91,82,30.17,29.97,10,1,10,0.00
2013-11-7,35.9,26.6,19.2,28.1,22.2,16.7,94,84,66,30.23,30.17,9,1,9,0.00
2013-11-8,38.2,28.8,15.4,34.9,25.1,12.7,94,86,75,30.25,29.68,13,2,13,0.02
2013-11-9,38.7,37.3,35.5,37.4,34.2,30.6,95,89,80,30.08,29.63,15,4,15,0.00
2013-11-10,42.5,37.4,34.3,31.7,29.9,27.3,84,75,56,30.31,30.09,12,3,12,0.00
2013-11-11,35.7,24.7,18.0,30.8,15.2,10.1,85,67,53,30.70,30.09,10,3,10,0.00
2013-11-12,28.4,19.9,13.5,13.5,10.7,8.0,82,68,43,30.78,30.50,9,2,9,0.00
2013-11-13,46.2,30.4,16.0,31.3,22.4,11.4,88,73,52,30.50,29.89,15,3,15,0.00
2013-11-14,41.9,34.3,27.7,34.1,30.2,25.8,93,85,72,29.89,29.78,12,1,12,0.00
2013-11-15,49.7,35.1,24.8,40.0,31.1,22.5,94,86,67,29.90,29.76,9,1,9,0.00
2013-11-16,49.8,42.5,38.0,49.3,39.5,34.4,98,89,79,29.77,29.30,16,2,16,0.02
2013-11-17,49.2,40.1,32.3,48.7,38.7,28.3,99,95,85,29.64,29.29,21,2,21,0.00
2013-11-18,32.2,28.8,25.3,28.4,22.5,19.5,87,77,69,30.30,29.64,17,3,17,0.00
2013-11-19,38.2,28.5,15.1,24.0,20.0,12.2,92,72,51,30.35,30.07,16,2,16,0.00
2013-11-20,40.9,37.3,34.1,32.3,27.6,22.6,92,69,54,30.09,30.02,18,4,18,0.01
2013-11-21,36.3,32.0,24.8,34.6,29.6,20.9,94,91,85,30.49,30.09,8,1,8,0.01
2013-11-22,31.2,23.4,13.0,21.2,14.9,5.3,87,71,39,30.58,30.42,15,3,15,0.00
2013-11-23,14.9,11.4,4.6,8.1,2.9,-1.4,84,69,51,30.80,30.58,14,3,14,0.00
2013-11-24,24.4,13.1,-3.0,15.8,4.9,-7.1,84,70,55,30.75,30.02,18,4,18,0.00
2013-11-25,37.5,31.7,24.4,28.9,24.0,15.7,81,73,61,30.02,29.89,15,4,15,0.00
2013-11-26,29.2,18.1,12.3,19.1,9.1,4.0,85,68,57,30.36,30.01,13,3,13,0.00
2013-11-27,24.6,19.1,12.8,18.5,13.7,9.4,87,80,61,30.39,30.18,9,1,9,0.27
2013-11-28,23.8,19.3,9.7,18.4,15.4,5.7,89,84,77,30.56,30.16,7,1,7,0.02
2013-11-29,26.2,14.1,-3.3,20.2,9.2,-7.3,90,81,74,30.64,30.29,17,2,17,0.00
2013-11-30,35.3,28.8,24.6,28.3,23.5,20.0,87,80,71,30.29,30.06,12,1,12,0.00
2013-12-1,34.6,31.8,28.3,28.8,26.6,23.3,86,81,76,30.21,29.99,4,0,4,0.00
2013-12-2,33.1,28.0,17.9,30.8,25.6,14.9,95,90,82,29.99,29.76,6,1,6,0.11
2013-12-3,32.5,30.4,26.7,31.2,28.9,24.7,95,94,92,29.91,29.74,4,0,4,0.21
2013-12-4,34.8,30.0,26.4,33.5,28.6,24.4,96,94,92,29.90,29.39,0,0,0,0.98
2013-12-5,21.6,9.0,-1.0,19.4,5.4,-5.3,91,85,82,30.31,29.57,0,0,0,0.00
2013-12-6,5.0,-2.8,-9.9,0.7,-7.1,-14.5,86,82,79,30.66,30.31,0,0,0,0.00
2013-12-7,0.8,-10.8,-22.4,-4.0,-15.3,-27.2,84,80,78,30.78,30.66,0,0,0,0.00
2013-12-8,11.3,-1.1,-21.9,7.8,-5.0,-26.6,87,83,78,30.70,30.12,0,0,0,0.04
2013-12-9,11.7,-0.3,-17.5,7.6,-4.5,-22.1,87,82,76,30.13,29.98,12,1,12,0.01
2013-12-10,6.4,-4.6,-15.1,1.8,-8.9,-19.4,89,81,78,30.31,29.92,10,1,10,0.00
2013-12-11,-1.6,-8.5,-16.3,-7.1,-13.0,-20.9,87,80,76,30.59,30.32,7,0,7,0.00
2013-12-12,13.6,4.9,-13.8,9.4,0.7,-18.0,86,82,79,30.46,30.25,5,0,5,0.01
2013-12-13,13.3,9.1,5.1,9.1,4.9,0.8,85,83,80,30.43,30.26,4,0,4,0.02
2013-12-14,18.5,11.3,5.8,14.6,7.5,1.5,87,84,82,30.43,30.04,7,0,7,0.04
2013-12-15,6.9,-6.5,-20.2,2.8,-11.1,-25.0,84,80,74,30.26,30.05,9,1,9,0.00
2013-12-16,11.1,1.4,-18.5,8.5,-2.5,-22.6,89,83,78,30.26,29.97,6,0,6,0.08
2013-12-17,28.1,17.8,1.4,24.2,14.1,-2.7,95,85,78,30.12,29.89,8,2,8,0.06
2013-12-18,26.2,10.3,-6.2,20.7,6.2,-10.2,88,83,73,30.12,29.73,8,1,8,0.00
2013-12-19,19.1,15.2,6.4,15.1,11.7,3.1,90,86,81,30.17,29.86,9,2,9,0.03
2013-12-20,21.2,15.3,0.3,17.0,11.8,-3.1,91,86,80,30.14,29.92,4,0,4,0.02
2013-12-21,22.7,19.1,12.4,18.7,15.4,9.5,89,85,80,30.06,29.91,4,0,4,0.00
2013-12-22,26.2,21.5,13.6,23.0,18.5,10.7,92,88,84,30.18,29.98,6,0,6,0.03
2013-12-23,20.4,14.5,-2.8,17.4,10.9,-7.3,90,85,77,30.50,30.18,7,0,7,0.04
2013-12-24,9.6,-6.8,-17.5,6.3,-10.6,-22.1,87,83,79,30.54,30.42,9,1,9,0.00
2013-12-25,13.0,11.5,10.0,8.8,7.2,5.5,84,82,80,30.15,30.13,8,1,8,0.10
2013-12-26,18.8,12.8,5.1,14.8,8.8,1.8,89,84,79,30.26,30.14,6,0,6,0.00
2013-12-27,30.6,22.1,15.5,28.0,19.9,12.5,94,91,87,30.25,29.91,12,2,12,0.00
2013-12-28,34.6,27.2,10.8,32.8,25.2,7.9,95,92,87,30.03,29.77,13,2,13,0.00
2013-12-29,19.0,0.7,-21.3,15.7,-4.3,-26.1,87,79,71,30.34,29.98,12,2,12,0.00
2013-12-30,1.5,-13.3,-27.3,-7.4,-19.0,-32.3,83,75,63,30.42,30.31,4,0,4,0.00
2013-12-31,-2.8,-11.5,-23.0,-8.3,-16.6,-27.9,85,77,69,30.56,30.29,6,0,6,0.00
2014-1-1,6.1,-3.3,-20.5,-0.2,-8.5,-25.2,82,78,71,30.65,30.54,1,0,1,0.00
2014-1-2,6.6,-6.8,-21.7,-0.5,-11.8,-26.6,86,78,70,30.56,30.49,6,0,6,0.00